Voltar ao catálogo

COSMOS 1275 DEB

AtivoPO
NORAD 42209·DEBRIS·🇷🇺 Russia

Lançado Jun 4, 1981 de Plesetsk Cosmodrome

Loading…

Próximas Passagens (próximas 24 horas)

TLE

AtualizadoSource: Space-Track

Época: Sep 14, 2026, 21:39 UTC

1 42209U 81053TZ  26257.90218169  .00000341  00000-0  26602-3 0  9999
2 42209  82.8779 324.7047 0052210 343.1379  16.8046 13.88954341648118

Acompanhe COSMOS 1275 DEB em tempo real com AllMySat

Download on the App Store